Location: Agadir Irigdalene
(31.2522°N, 8.7797°W)
Time: 15:15:47
(UTC+00:00)

Meteor 1-11 Rocket - Pass Details

Date: 01 December 2020
Orbit: 831 x 915 km, 81.2° (Epoch: 25 January)

Event Time Altitude Azimuth Distance (km) Brightness Sun altitude
Rises 19:20:10 0° 356° (N) 3,488 6.8 -22.6°
Reaches altitude 10° 19:22:37 10° 359° (N) 2,558 6.1 -23.1°
Maximum altitude 19:28:26 66° 81° (E) 977 3.7 -24.4°
Drops below altitude 10° 19:34:18 10° 164° (SSE) 2,587 6.2 -25.6°
Sets 19:36:47 0° 167° (SSE) 3,530 6.9 -26.1°
